DELTA 1 DEB, 40759

Orbit data source: Space-Track

DELTA 1 DEB, 40759 is space debris in SSO originally from a launch on Thu, 29 Jul 1976 UTC launched from the Air Force Western Test Range (AFWTR). Debris objects in space refer to the collection of defunct objects orbiting the Earth. Examples of debris include non-operational satellites, rocket bodies, and fragments generated from explosions, collisions, or faulty payload assembly.

Loading next visibility...
Identifier
40759, 1976-077GC
Orbit
SSO
Country
Flag of USUS
Related business
Manufacturer
Unknown
Mission
Spacecraft
Bus & Motor
Unknown
Mass
Unknown
Launch date (UTC)
1976-07-29 (50 years ago)
Launch vehicle
Unknown
Launch site
Air Force Western Test Range (AFWTR)
Object type
Payload
Rocket body
Debris
Shape & HBR
Unknown shape, 0.1 m
Radar Cross Section
Small (<0.1 m²)

Expand to show TLE details & history
Last TLE update: 2 weeks ago

TLE from 2 weeks ago
0 DELTA 1 DEB
1 40759U 76077GC  26158.52083277  .00000029  00000-0  35393-3 0  9995
2 40759 102.1179 263.8457 0291516 338.2945  20.5986 12.66493355983780
Epoch: 2026-06-07T12:29Z
TLE epoch observation values (Epoch: 2026-06-07T12:29:59.951Z)
Latitude
-0.00009°
Longitude
-179.57493°
Altitude
1,187.514 km
Speed
7.358 km/s
True Right ascension
17h 35m 22s
True Declination
0° 00' 00"
Sunlit
Object was in full shadow at epoch
Visualization orbit readout
Latitude
Unknown
Longitude
Unknown
Altitude
Unknown
Speed
Unknown
Apparent Right ascension
Unknown
Apparent Declination
Unknown
Sunlit
N/A
Visualization observer readout
Local Sidereal Time
21:59:50
Azimuth
Unknown
Elevation
Unknown
Doppler factor
Unknown
Orbital elements
Apogee altitude
1,620.366 km
Perigee altitude
1,167.237 km
Semi-major axis
7,771.939 km
Eccentricity
0.02915
Inclination
102.1179°
RAAN
263.8457°
Arg. of periapsis
338.2945°
True anomaly
21.81521°
Mean anomaly
20.5986°
Eccentric anomaly
21.20268°
Mean motion
3.16774 °/min
Orbital period
113.65 mins
BSTAR
0.00035393
Loading maneuver chart data...
Computing Atmospheric mass density...
Loading historical data...
Loading historical data...
Loading historical data...
Loading historical data...
Loading historical data...
Loading historical data...
Loading historical data...

Documentation

Showing up to 5 results
|